Location: Jefferson Observatory
(34.1602°N, 83.6058°W)
Time: 19:23:06
(UTC-04:00)

Tiangong 2 - Visible Passes

Search period start: 15 July 2018 00:00
Search period end: 25 July 2018 00:00
Orbit: 386 x 394 km, 42.8° (Epoch: 15 July)

Date Brightness Start Highest point End Pass type
(mag) Time Alt. Az. Time Alt. Az. Time Alt. Az.
15 Jul 4.7 00:10:16 10° NW 00:10:25 11° NW 00:10:25 11° NW visible
15 Jul 3.3 21:34:20 10° WNW 21:37:06 27° NNW 21:39:53 10° NE visible
15 Jul 3.8 23:12:27 10° NW 23:14:38 17° N 23:15:21 16° NNE visible
16 Jul 3.8 22:14:28 10° NW 22:16:43 17° N 22:18:57 10° NE visible
16 Jul 4.4 23:51:45 10° NW 23:52:30 14° NNW 23:52:30 14° NNW visible
17 Jul 3.7 21:16:22 10° WNW 21:18:48 20° N 21:21:16 10° NE visible
17 Jul 3.5 22:54:06 10° NW 22:56:25 18° N 22:57:16 17° NNE visible
18 Jul 3.8 21:56:19 10° NW 21:58:29 17° N 22:00:40 10° NE visible
18 Jul 3.9 23:33:06 10° NW 23:34:18 19° NNW 23:34:18 19° NNW visible
19 Jul 3.1 22:35:32 10° NW 22:38:08 23° NNE 22:39:00 20° NE visible
20 Jul 3.5 21:37:52 10° NW 21:40:14 19° N 21:42:34 10° NE visible
20 Jul 3.4 23:14:26 10° NW 23:16:01 26° NW 23:16:01 26° NW visible
21 Jul 2.5 22:16:50 10° NW 22:19:45 32° NNE 22:20:44 26° ENE visible
22 Jul 3.0 21:19:15 10° NW 21:21:54 24° NNE 21:24:33 10° ENE visible
22 Jul 2.7 22:55:50 10° WNW 22:57:47 34° WNW 22:57:47 34° WNW visible
23 Jul 1.4 21:58:08 10° NW 22:01:17 58° NNE 22:02:33 31° E visible
24 Jul 2.6 22:37:25 10° WNW 22:39:41 30° WSW 22:39:41 30° WSW visible
